1494478800.13,65424,13.75,72826.5,-1.39,-38.85,-39.79,0,*58
1494478801.38,65425,13.75,72826.8,-1.39,-38.61,-39.53,0,*5B
1494478802.64,65426,13.75,72822.8,-1.39,-39.03,-40.03,0,*56
1494478803.89,65427,13.75,72818.5,-1.39,-38.97,-39.97,0,*58
1494478805.15,65428,13.75,72818.3,-1.35,-39.09,-39.97,0,*5D
1494478806.4,65429,13.75,72820.0,-1.35,-39.53,-40.35,0,*55
1494478807.66,65430,13.75,72818.3,-1.35,-40.85,-41.73,0,*5B
1494478808.91,65431,13.75,72820.8,-1.35,-40.91,-41.93,0,*51
1494478810.14,65432,13.75,72826.0,-1.39,-40.53,-41.41,0,*5F
1494478811.4,65433,13.75,72822.3,-1.39,-39.97,-41.11,0,*5D
1494478812.65,65434,13.75,72824.8,-1.39,-40.91,-41.93,0,*58
1494478813.94,65435,13.75,72830.0,-1.39,-41.23,-42.31,0,*5A
1494478815.15,65436,13.75,72828.8,-1.41,-41.99,-43.01,0,*55
1494478816.39,65437,13.75,72830.0,-1.41,-40.79,-41.81,0,*51
1494478817.62,65438,13.75,72830.5,-1.41,-41.29,-42.45,0,*51
1494478818.82,65439,13.75,72828.3,-1.41,-41.49,-42.51,0,*53
1494478820.06,65440,13.75,72820.8,-1.43,-42.25,-43.41,0,*56
1494478821.3,65441,13.75,72824.0,-1.45,-40.91,-42.05,0,*5D
1494478822.55,65442,13.75,72830.3,-1.45,-40.09,-41.03,0,*5A
1494478823.77,65443,13.75,72826.0,-1.45,-39.65,-40.53,0,*5B
1494478825.03,65444,13.75,72824.3,-1.43,-39.85,-40.79,0,*5C
1494478826.3,65445,13.75,72826.5,-1.43,-39.09,-40.09,0,*5E
1494478827.56,65446,13.75,72836.0,-1.43,-39.47,-40.21,0,*5D
1494478828.79,65447,13.75,72836.5,-1.41,-39.03,-39.85,0,*5E
1494478830.04,65448,13.75,72838.3,-1.39,-39.41,-40.35,0,*5D
1494478831.31,65449,13.75,72834.0,-1.39,-39.71,-40.53,0,*5F
1494478832.59,65450,13.75,72842.3,-1.39,-39.03,-39.97,0,*54
1494478833.87,65451,13.75,72834.8,-1.39,-39.53,-40.41,0,*55
1494478835.11,65452,13.75,72830.5,-1.35,-39.65,-40.47,0,*59
1494478836.36,65453,13.75,72838.5,-1.35,-39.53,-40.47,0,*5D
1494478837.62,65454,13.75,72822.0,-1.31,-39.97,-41.03,0,*57
1494478838.89,65455,13.75,72820.5,-1.35,-40.09,-40.91,0,*51
1494478840.14,65456,13.75,72816.5,-1.35,-40.29,-41.11,0,*59
1494478841.4,65457,13.75,72812.5,-1.31,-40.29,-41.11,0,*5C
1494478842.65,65458,13.75,72808.8,-1.31,-40.53,-41.67,0,*5F
1494478843.9,65459,13.75,72796.3,-1.35,-41.49,-42.05,0,*57
1494478845.16,65460,13.75,72808.0,-1.39,-41.81,-42.75,0,*52
1494478846.42,65461,13.75,72804.8,-1.39,-40.59,-41.61,0,*51
1494478847.67,65462,13.75,72794.5,-1.39,-41.35,-42.37,0,*59
1494478848.93,65463,13.75,72806.8,-1.39,-41.41,-42.57,0,*5D
1494478850.13,65464,13.75,72810.8,-1.41,-42.63,-43.61,0,*52
1494478851.42,65465,13.75,72814.3,-1.43,-42.19,-43.29,0,*50
1494478852.65,65466,13.75,72808.8,-1.45,-41.11,-41.93,0,*5D
1494478853.94,65467,13.75,72816.0,-1.43,-40.79,-41.67,0,*5E
1494478855.19,65468,13.75,72830.3,-1.43,-40.21,-41.03,0,*5E
1494478856.43,65469,13.75,72826.8,-1.45,-40.09,-40.65,0,*52
1494478857.67,65470,13.75,72826.0,-1.43,-39.85,-40.65,0,*56
1494478858.93,65471,13.75,72830.5,-1.43,-40.03,-40.79,0,*5A
1494478860.19,65472,13.75,72832.5,-1.43,-40.21,-41.03,0,*55
1494478861.48,65473,13.75,72828.8,-1.43,-39.59,-40.29,0,*5C
1494478862.72,65474,13.75,72830.8,-1.41,-40.41,-41.61,0,*53
1494478863.98,65475,13.75,72826.5,-1.41,-40.09,-40.85,0,*55
1494478865.2,65476,13.75,72820.5,-1.41,-40.65,-41.81,0,*59
1494478866.46,65477,13.75,72820.8,-1.43,-41.03,-42.05,0,*54
1494478867.72,65478,13.75,72828.0,-1.43,-43.09,-44.07,0,*57
1494478868.96,65479,13.75,72820.8,-1.45,-41.23,-42.13,0,*59
1494478870.19,65480,13.75,72818.0,-1.45,-40.47,-41.23,0,*5C
1494478871.42,65481,13.75,72820.5,-1.43,-40.65,-41.49,0,*57
1494478872.7,65482,13.75,72824.5,-1.43,-40.85,-41.81,0,*5E
1494478873.93,65483,13.75,72824.8,-1.45,-40.65,-41.67,0,*5F
1494478875.17,65484,13.75,72830.5,-1.45,-40.53,-41.67,0,*5D
1494478876.41,65485,13.75,72830.5,-1.45,-40.73,-41.67,0,*5E
1494478877.64,65486,13.75,72826.5,-1.45,-41.03,-41.81,0,*53
1494478878.9,65487,13.75,72820.8,-1.43,-40.29,-41.17,0,*52
1494478880.16,65488,13.75,72816.3,-1.43,-40.29,-41.17,0,*5D
1494478881.4,65489,13.75,72812.3,-1.45,-39.85,-40.59,0,*59
1494478882.64,65490,13.75,72806.3,-1.43,-40.03,-41.03,0,*59
1494478883.88,65491,13.75,72820.8,-1.43,-41.61,-42.63,0,*58
1494478885.1,65492,13.75,72828.3,-1.45,-42.75,-43.75,0,*5D
1494478886.34,65493,13.75,72824.5,-1.47,-41.61,-42.51,0,*5F
1494478887.59,65494,13.75,72822.3,-1.49,-41.17,-42.19,0,*5B
1494478888.84,65495,13.75,72822.3,-1.49,-40.59,-41.61,0,*5D
1494478890.11,65496,13.75,72822.0,-1.47,-40.41,-41.29,0,*55
1494478891.35,65497,13.75,72820.8,-1.47,-40.03,-40.91,0,*50
1494478892.61,65498,13.75,72820.5,-1.47,-39.91,-40.79,0,*5C
1494478893.85,65499,13.75,72826.3,-1.47,-40.03,-41.11,0,*57
1494478895.14,65500,13.75,72832.8,-1.47,-39.23,-40.21,0,*58
1494478896.42,65501,13.75,72836.8,-1.43,-38.91,-39.79,0,*56
1494478897.67,65502,13.75,72832.0,-1.43,-39.91,-41.03,0,*56
1494478898.93,65503,13.75,72836.0,-1.43,-39.23,-40.03,0,*5F
1494478900.16,65504,13.75,72834.5,-1.43,-39.09,-40.03,0,*50
1494478901.38,65505,13.75,72830.8,-1.41,-38.67,-39.47,0,*54
1494478902.63,65506,13.75,72832.3,-1.39,-38.55,-39.03,0,*59
1494478903.86,65507,13.75,72830.8,-1.39,-38.61,-39.35,0,*5A
1494478905.08,65508,13.75,72828.3,-1.35,-38.55,-39.35,0,*5E
1494478906.31,65509,13.75,72832.0,-1.35,-38.55,-39.35,0,*5F
1494478907.53,65510,13.75,72832.3,-1.31,-38.61,-39.35,0,*54
1494478908.79,65511,13.75,72834.5,-1.29,-38.49,-39.29,0,*5B
1494478910.02,65512,13.75,72846.5,-1.27,-39.85,-40.65,0,*51
1494478911.28,65513,13.75,72846.3,-1.27,-41.03,-42.05,0,*55
1494478912.51,65514,13.75,72828.3,-1.29,-40.65,-41.67,0,*5A
1494478913.76,65515,13.75,72822.5,-1.29,-40.21,-41.23,0,*5B
1494478915.01,65516,13.75,72820.0,-1.27,-40.21,-41.03,0,*54
1494478916.25,65517,13.75,72818.0,-1.29,-40.41,-41.29,0,*55
1494478917.48,65518,13.75,72814.5,-1.31,-39.65,-40.53,0,*57
1494478918.71,65519,13.75,72820.8,-1.29,-40.29,-41.11,0,*5E
1494478919.95,65520,13.75,72822.3,-1.29,-39.91,-40.79,0,*56
1494478921.18,65521,13.75,72824.3,-1.29,-40.21,-41.03,0,*5E
1494478922.41,65522,13.75,72828.3,-1.27,-39.85,-40.65,0,*52
1494478923.62,65523,13.75,72828.0,-1.29,-39.85,-40.65,0,*5D
1494478924.9,65524,13.75,72832.8,-1.27,-39.03,-39.71,0,*51
1494478926.14,65525,13.75,72834.8,-1.27,-39.09,-39.85,0,*51
1494478927.4,65526,13.75,72836.5,-1.27,-39.65,-40.59,0,*57
1494478928.66,65527,13.75,72824.8,-1.27,-40.85,-41.87,0,*54
1494478929.92,65528,13.75,72826.0,-1.27,-40.03,-40.97,0,*55
1494478931.18,65529,13.75,72822.3,-1.27,-39.71,-40.65,0,*52
1494478932.45,65530,13.75,72818.0,-1.27,-40.03,-40.97,0,*5C
1494478933.68,65531,13.75,72830.5,-1.27,-39.65,-40.47,0,*5E
1494478934.91,65532,13.75,72840.8,-1.27,-39.47,-40.47,0,*5D
1494478936.19,65533,13.75,72844.5,-1.27,-40.29,-41.23,0,*59
1494478937.45,65534,13.75,72842.8,-1.27,-40.03,-40.85,0,*5B
1494478938.69,65535,13.75,72832.3,-1.25,-39.65,-40.41,0,*5E
1494478939.95,0,13.75,72840.5,-1.27,-40.09,-40.79,0,*53
1494478941.16,1,13.75,72838.8,-1.27,-39.47,-40.47,0,*5B
1494478942.33,2,13.75,72836.8,-1.25,-39.35,-40.03,0,*5F
1494478943.61,3,13.75,72840.8,-1.23,-39.59,-40.59,0,*5D
1494478944.82,4,13.75,72828.8,-1.23,-40.03,-40.73,0,*53
1494478946.0,5,13.75,72824.5,-1.25,-40.03,-41.17,0,*57
1494478947.17,6,13.75,72822.5,-1.25,-41.17,-42.13,0,*57
1494478948.35,7,13.75,72832.3,-1.25,-41.03,-41.99,0,*52
1494478949.56,8,13.75,72834.5,-1.25,-41.35,-42.25,0,*5C
1494478950.8,9,13.75,72836.3,-1.27,-40.41,-41.29,0,*52
1494478952.03,10,13.75,72834.8,-1.27,-40.59,-41.49,0,*65
1494478953.28,11,13.75,72832.5,-1.27,-39.91,-40.85,0,*6F
1494478954.52,12,13.69,72834.3,-1.27,-40.21,-41.03,0,*66
1494478955.77,13,13.75,72834.5,-1.27,-39.91,-40.59,0,*6C
1494478956.98,14,13.75,72830.0,-1.25,-39.15,-40.03,0,*6A
1494478958.23,15,13.75,72832.0,-1.25,-39.79,-40.59,0,*6E
1494478959.51,16,13.75,72836.0,-1.23,-39.59,-40.41,0,*60
1494478960.76,17,13.75,72830.8,-1.25,-39.59,-40.41,0,*67
1494478961.99,18,13.75,72832.0,-1.23,-40.53,-41.55,0,*6E
1494478963.21,19,13.75,72832.3,-1.25,-39.79,-40.73,0,*6A
1494478964.4,20,13.75,72830.8,-1.25,-40.03,-40.91,0,*6F
1494478965.62,21,13.75,72832.5,-1.25,-39.79,-40.73,0,*61
1494478966.86,22,13.75,72836.3,-1.23,-40.03,-40.79,0,*6D
1494478968.08,23,13.75,72838.5,-1.25,-39.65,-40.41,0,*6F
1494478969.31,24,13.69,72832.3,-1.25,-39.53,-40.41,0,*6D
1494478970.56,25,13.75,72836.3,-1.23,-39.65,-40.59,0,*66
1494478971.76,26,13.75,72822.3,-1.21,-40.15,-41.11,0,*63
1494478972.99,27,13.75,72838.8,-1.23,-40.15,-40.91,0,*69
1494478974.21,28,13.69,72832.8,-1.23,-39.65,-40.53,0,*61
1494478975.44,29,13.75,72832.5,-1.23,-39.65,-40.53,0,*60
1494478976.7,30,13.75,72838.8,-1.23,-39.23,-39.97,0,*6C
1494478977.92,31,13.75,72832.3,-1.21,-39.71,-40.53,0,*6E
1494478979.13,32,13.75,72828.8,-1.21,-40.47,-41.35,0,*67
1494478980.36,33,13.75,72834.5,-1.21,-40.09,-40.91,0,*63
1494478981.58,34,13.69,72828.3,-1.21,-39.71,-40.53,0,*6B
1494478982.8,35,13.75,72830.5,-1.21,-39.79,-40.73,0,*60
1494478984.02,36,13.75,72828.8,-1.21,-40.09,-40.73,0,*6A
1494478985.23,37,13.75,72824.5,-1.19,-39.65,-40.47,0,*63
1494478986.45,38,13.75,72828.8,-1.21,-39.59,-40.35,0,*6D
1494478987.69,39,13.75,72826.5,-1.19,-39.47,-40.21,0,*6D
1494478988.95,40,13.75,72832.8,-1.19,-39.53,-40.59,0,*69
1494478990.22,41,13.75,72828.3,-1.19,-40.09,-40.85,0,*68
1494478991.48,42,13.75,72830.0,-1.19,-40.21,-41.23,0,*6C
1494478992.7,43,13.69,72830.3,-1.21,-40.73,-41.67,0,*61
1494478993.91,44,13.69,72826.0,-1.19,-40.47,-41.41,0,*6E
1494478995.12,45,13.75,72824.5,-1.21,-39.71,-40.47,0,*68
1494478996.34,46,13.69,72824.5,-1.21,-39.53,-40.15,0,*6C
1494478997.55,47,13.75,72828.0,-1.19,-38.55,-39.09,0,*62
1494478998.73,48,13.75,72830.0,-1.17,-38.05,-38.73,0,*6A
1494478999.94,49,13.75,72832.8,-1.17,-38.85,-39.41,0,*63
1494479001.17,50,13.69,72832.0,-1.15,-38.67,-39.23,0,*61
1494479002.41,51,13.75,72832.5,-1.15,-38.67,-39.41,0,*64
1494479003.63,52,13.69,72828.5,-1.15,-38.85,-39.41,0,*6B
1494479004.87,53,13.75,72830.0,-1.13,-38.61,-39.23,0,*62
1494479006.14,54,13.75,72826.8,-1.13,-39.23,-39.97,0,*6D
1494479007.34,55,13.69,72824.8,-1.11,-38.73,-39.41,0,*61
1494479008.61,56,13.75,72834.3,-1.13,-38.79,-39.41,0,*6A
1494479009.84,57,13.69,72828.5,-1.11,-39.79,-40.53,0,*65
1494479011.04,58,13.75,72830.0,-1.11,-39.91,-40.65,0,*69
1494479012.26,59,13.75,72830.8,-1.11,-39.79,-40.73,0,*69
1494479013.48,60,13.69,72830.0,-1.11,-39.97,-40.73,0,*63
1494479014.72,61,13.75,72832.0,-1.11,-39.53,-40.29,0,*65
1494479015.94,62,13.75,72842.5,-1.11,-39.41,-40.15,0,*6A
1494479017.17,63,13.75,72834.3,-1.07,-39.79,-40.53,0,*65
1494479018.36,64,13.69,72834.3,-1.07,-40.53,-41.29,0,*68
1494479019.61,65,13.75,72840.3,-1.07,-39.41,-40.09,0,*67
1494479020.82,66,13.69,72840.8,-1.11,-39.97,-40.65,0,*62
1494479022.04,67,13.75,72834.5,-1.07,-39.41,-40.15,0,*68
1494479023.29,68,13.75,72826.5,-1.07,-39.41,-40.29,0,*68
1494479024.47,69,13.75,72822.3,-1.07,-40.65,-41.49,0,*66
1494479025.67,70,13.69,72822.5,-1.07,-40.47,-41.29,0,*68
1494479026.89,71,13.69,72822.8,-1.11,-40.29,-40.91,0,*64
1494479028.13,72,13.75,72826.8,-1.13,-40.03,-40.59,0,*69
1494479029.35,73,13.75,72828.5,-1.11,-39.71,-40.35,0,*6B
1494479030.58,74,13.69,72828.8,-1.11,-40.09,-40.73,0,*6F
1494479031.8,75,13.69,72832.0,-1.11,-39.79,-40.53,0,*65
1494479033.03,76,13.69,72834.3,-1.11,-39.79,-40.47,0,*63
1494479034.24,77,13.75,72834.3,-1.11,-39.35,-39.97,0,*69
1494479035.46,78,13.69,72838.5,-1.11,-40.65,-41.55,0,*6C
1494479036.68,79,13.69,72838.8,-1.11,-40.09,-40.73,0,*62
1494479037.89,80,13.69,72828.8,-1.11,-39.29,-39.91,0,*6A
1494479039.11,81,13.69,72824.3,-1.11,-39.53,-40.35,0,*66
1494479040.33,82,13.69,72818.0,-1.11,-39.97,-40.91,0,*63
1494479041.55,83,13.75,72816.5,-1.11,-39.97,-40.91,0,*62
1494479042.77,84,13.69,72820.5,-1.11,-40.09,-40.73,0,*60
1494479043.99,85,13.69,72820.3,-1.11,-39.41,-40.15,0,*63
1494479045.22,86,13.69,72822.5,-1.11,-39.59,-40.73,0,*69
1494479046.44,87,13.69,72826.8,-1.11,-39.71,-40.53,0,*60
1494479047.69,88,13.69,72836.5,-1.11,-40.09,-40.97,0,*66
1494479048.92,89,13.69,72834.3,-1.11,-39.79,-40.47,0,*63
1494479050.13,90,13.69,72830.3,-1.11,-39.97,-40.73,0,*6C
1494479051.33,91,13.75,72836.5,-1.11,-39.91,-40.65,0,*6C
1494479052.51,92,13.69,72830.5,-1.11,-40.53,-41.49,0,*60
1494479053.77,93,13.69,72840.5,-1.13,-39.65,-40.59,0,*68
1494479054.98,94,13.75,72832.3,-1.11,-40.29,-41.11,0,*66
1494479056.22,95,13.69,72838.8,-1.13,-40.03,-40.79,0,*62
1494479057.44,96,13.69,72836.3,-1.11,-39.97,-40.91,0,*66
1494479058.68,97,13.69,72832.8,-1.13,-40.03,-40.79,0,*60
1494479059.88,98,13.69,72828.8,-1.07,-39.91,-40.73,0,*65
1494479061.11,99,13.69,72824.5,-1.07,-39.71,-40.53,0,*68
1494479062.33,100,13.75,72814.8,-1.07,-40.29,-41.17,0,*5B
1494479063.57,101,13.69,72828.3,-1.07,-39.79,-40.65,0,*55
1494479064.8,102,13.69,72824.8,-1.11,-40.09,-40.91,0,*53
1494479066.05,103,13.75,72820.3,-1.11,-40.29,-40.97,0,*56
1494479067.26,104,13.75,72826.5,-1.11,-39.91,-40.53,0,*54
1494479068.49,105,13.69,72824.0,-1.11,-39.59,-40.47,0,*54
1494479069.71,106,13.69,72824.8,-1.11,-40.29,-41.11,0,*5C
1494479070.92,107,13.69,72826.3,-1.11,-39.91,-40.53,0,*57
1494479072.16,108,13.69,72830.5,-1.11,-39.53,-40.29,0,*5B
1494479073.38,109,13.69,72822.3,-1.11,-39.97,-40.73,0,*5D
1494479074.62,110,13.75,72832.5,-1.11,-40.15,-40.97,0,*5B
1494479075.84,111,13.69,72838.5,-1.11,-40.79,-41.87,0,*50
1494479077.03,112,13.69,72838.3,-1.11,-40.73,-41.73,0,*52
1494479078.29,113,13.69,72830.5,-1.13,-41.93,-42.75,0,*5B
1494479079.51,114,13.75,72842.0,-1.11,-41.55,-42.37,0,*52
1494479080.73,115,13.75,72848.3,-1.13,-40.53,-41.41,0,*54
1494479081.97,116,13.69,72844.0,-1.13,-39.97,-40.53,0,*53
1494479083.23,117,13.69,72846.0,-1.13,-39.65,-40.41,0,*5C
1494479084.48,118,13.69,72838.8,-1.13,-40.03,-40.79,0,*56
1494479085.71,119,13.69,72836.3,-1.13,-39.85,-40.53,0,*5F
1494479086.91,120,13.75,72838.3,-1.11,-39.35,-40.15,0,*5E
1494479088.16,121,13.69,72834.3,-1.11,-38.79,-39.79,0,*52
1494479089.4,122,13.69,72834.0,-1.13,-40.03,-40.79,0,*5F
1494479090.63,123,13.69,72836.3,-1.11,-40.47,-41.35,0,*55
1494479091.86,124,13.69,72838.5,-1.11,-39.59,-40.47,0,*57
1494479093.08,125,13.69,72838.0,-1.11,-39.97,-40.65,0,*54
1494479094.33,126,13.69,72834.3,-1.13,-39.41,-40.15,0,*59
1494479095.58,127,13.69,72834.0,-1.11,-39.71,-40.29,0,*56
1494479096.83,128,13.75,72836.5,-1.11,-39.41,-39.97,0,*51
1494479098.06,129,13.69,72836.0,-1.11,-39.59,-40.35,0,*5F
1494479099.29,130,13.69,72830.3,-1.07,-39.97,-40.91,0,*5C
1494479100.51,131,13.69,72836.5,-1.07,-39.35,-39.97,0,*5D
1494479101.74,132,13.69,72836.5,-1.07,-39.09,-39.79,0,*51
1494479102.99,133,13.69,72836.8,-1.05,-40.21,-41.03,0,*54
1494479104.22,134,13.69,72840.0,-1.07,-40.29,-40.91,0,*53
1494479105.43,135,13.69,72844.0,-1.07,-39.91,-40.53,0,*51
1494479106.65,136,13.69,72838.0,-1.05,-40.03,-41.03,0,*51
1494479107.92,137,13.69,72832.3,-1.07,-40.09,-40.97,0,*54
1494479109.15,138,13.75,72832.0,-1.07,-39.15,-39.91,0,*50
1494479110.39,139,13.69,72836.0,-1.07,-39.53,-40.29,0,*5E
1494479111.67,140,13.69,72842.3,-1.05,-39.71,-40.41,0,*5C
1494479112.89,141,13.69,72846.0,-1.05,-40.65,-41.41,0,*57
1494479114.14,142,13.69,72848.0,-1.05,-40.03,-40.85,0,*5D
1494479115.38,143,13.69,72842.8,-1.07,-40.09,-40.91,0,*51
1494479116.6,144,13.69,72838.0,-1.05,-40.03,-40.91,0,*5E
1494479117.84,145,13.69,72840.8,-1.07,-39.59,-40.53,0,*52
1494479119.07,146,13.69,72832.5,-1.07,-39.41,-40.15,0,*5A
1494479120.29,147,13.69,72830.3,-1.07,-40.65,-41.35,0,*50
1494479121.51,148,13.69,72824.3,-1.07,-40.79,-41.73,0,*50
1494479122.71,149,13.69,72836.8,-1.07,-40.35,-41.29,0,*56
1494479123.93,150,13.75,72834.3,-1.07,-40.29,-41.17,0,*5E
1494479125.13,151,13.69,72832.5,-1.07,-40.47,-41.49,0,*5C
1494479126.35,152,13.69,72828.8,-1.07,-40.97,-41.87,0,*50
1494479127.58,153,13.69,72828.0,-1.07,-40.97,-41.73,0,*5A
1494479128.83,154,13.69,72846.8,-1.07,-41.35,-42.19,0,*5B
1494479130.11,155,13.69,72848.0,-1.13,-40.41,-41.23,0,*57
1494479131.34,156,13.69,72836.3,-1.11,-39.71,-40.53,0,*5D
1494479132.63,157,13.69,72838.0,-1.13,-39.59,-40.41,0,*57
1494479133.83,158,13.69,72824.5,-1.11,-39.91,-40.65,0,*58
1494479135.05,159,13.69,72826.3,-1.11,-40.29,-41.11,0,*56
1494479136.28,160,13.69,72826.5,-1.11,-39.79,-40.35,0,*50
1494479137.5,161,13.75,72824.0,-1.11,-40.29,-40.73,0,*58
1494479138.78,162,13.69,72820.8,-1.13,-40.21,-40.97,0,*5B
1494479140.0,163,13.69,72820.0,-1.11,-39.09,-39.71,0,*5A
1494479141.25,164,13.69,72818.8,-1.11,-39.29,-39.71,0,*5F
1494479142.47,165,13.69,72816.8,-1.11,-39.53,-40.15,0,*5F
1494479143.66,166,13.75,72824.5,-1.07,-40.65,-41.49,0,*58
1494479144.91,167,13.69,72824.5,-1.05,-39.47,-40.09,0,*50
1494479146.16,168,13.69,72824.0,-1.05,-39.47,-40.29,0,*5D
1494479147.38,169,13.69,72828.8,-1.07,-40.29,-41.11,0,*52
1494479148.61,170,13.69,72830.5,-1.07,-39.97,-40.65,0,*53
1494479149.87,171,13.69,72820.8,-1.07,-39.59,-40.29,0,*58
1494479151.14,172,13.69,72824.5,-1.05,-40.29,-41.35,0,*5C
1494479152.33,173,13.69,72818.3,-1.11,-41.49,-42.37,0,*5E
1494479153.58,174,13.69,72820.0,-1.13,-41.93,-42.75,0,*5A
1494479154.83,175,13.69,72808.5,-1.13,-40.73,-41.55,0,*55
1494479156.07,176,13.69,72814.5,-1.13,-41.17,-41.93,0,*5F
1494479157.33,177,13.69,72818.8,-1.13,-41.93,-42.75,0,*59
1494479158.54,178,13.69,72812.3,-1.17,-42.51,-43.29,0,*57
1494479159.75,179,13.69,72814.0,-1.17,-41.49,-42.45,0,*57
1494479160.93,180,13.69,72810.3,-1.17,-41.29,-42.13,0,*54
1494479162.15,181,13.69,72810.5,-1.17,-41.03,-41.81,0,*55
1494479163.4,182,13.69,72810.3,-1.19,-40.09,-41.11,0,*5A
1494479164.61,183,13.69,72808.0,-1.19,-40.65,-41.61,0,*56
1494479165.84,184,13.69,72810.3,-1.19,-40.21,-41.11,0,*56
1494479167.11,185,13.69,72814.0,-1.19,-40.85,-41.67,0,*58
1494479168.33,186,13.69,72814.0,-1.21,-40.53,-41.35,0,*5C
1494479169.57,187,13.69,72816.0,-1.19,-40.03,-40.85,0,*59
1494479170.83,188,13.69,72814.0,-1.21,-40.09,-40.85,0,*57
1494479172.08,189,13.69,72818.3,-1.19,-39.85,-40.59,0,*56
1494479173.35,190,13.69,72816.8,-1.19,-39.41,-40.21,0,*59
1494479174.56,191,13.69,72822.3,-1.17,-40.29,-41.11,0,*54
1494479175.77,192,13.69,72824.3,-1.17,-40.29,-41.11,0,*57
1494479176.98,193,13.69,72824.3,-1.17,-39.53,-40.47,0,*57
1494479178.18,194,13.69,72830.8,-1.17,-39.09,-39.85,0,*5F
1494479179.41,195,13.69,72826.8,-1.17,-40.21,-40.85,0,*54
1494479180.64,196,13.69,72838.3,-1.15,-39.41,-40.03,0,*53
1494479181.83,197,13.69,72834.8,-1.15,-38.61,-39.35,0,*5A
1494479183.08,198,13.69,72834.3,-1.15,-39.23,-39.97,0,*5A
1494479184.31,199,13.69,72832.5,-1.15,-39.23,-39.85,0,*58
1494479185.56,200,13.69,72838.5,-1.13,-39.41,-40.15,0,*5E
1494479186.83,201,13.69,72830.5,-1.13,-40.79,-41.55,0,*5F
1494479188.06,202,13.69,72842.5,-1.13,-42.37,-43.41,0,*53
1494479189.31,203,13.69,72830.5,-1.15,-41.35,-42.05,0,*54
1494479190.57,204,13.69,72832.3,-1.15,-40.09,-40.97,0,*54
1494479191.79,205,13.69,72832.8,-1.15,-40.03,-40.79,0,*5F
1494479193.03,206,13.69,72840.3,-1.17,-41.23,-42.05,0,*54
1494479194.25,207,13.69,72840.5,-1.17,-41.61,-42.31,0,*54
1494479195.5,208,13.69,72844.0,-1.19,-41.41,-42.31,0,*57
1494479196.72,209,13.69,72846.5,-1.21,-41.55,-42.37,0,*5E
1494479197.99,210,13.69,72840.3,-1.19,-40.85,-41.67,0,*57
1494479199.23,211,13.69,72840.3,-1.19,-39.65,-40.29,0,*5D
1494479200.5,212,13.69,72828.5,-1.19,-39.53,-40.41,0,*55
1494479201.78,213,13.69,72824.3,-1.19,-39.71,-40.59,0,*5D
1494479202.99,214,13.69,72818.5,-1.19,-40.47,-41.41,0,*59
1494479204.24,215,13.69,72818.3,-1.19,-40.29,-41.03,0,*56
1494479205.48,216,13.69,72810.3,-1.19,-39.53,-40.47,0,*57
1494479206.67,217,13.69,72808.8,-1.17,-40.91,-41.87,0,*55
1494479207.87,218,13.69,72824.0,-1.17,-39.91,-40.65,0,*59
1494479209.08,219,13.69,72826.0,-1.17,-42.05,-43.01,0,*58
1494479210.32,220,13.69,72824.5,-1.19,-41.61,-42.45,0,*5C
1494479211.54,221,13.69,72832.8,-1.21,-42.05,-43.15,0,*53
1494479212.73,222,13.69,72826.8,-1.21,-42.13,-42.89,0,*53
1494479213.97,223,13.69,72826.5,-1.23,-40.97,-41.99,0,*5C
1494479215.22,224,13.69,72828.5,-1.23,-41.23,-42.13,0,*54
1494479216.47,225,13.69,72826.8,-1.23,-40.21,-40.91,0,*5E
1494479217.67,226,13.69,72834.8,-1.25,-40.15,-40.91,0,*5C
1494479218.92,227,13.69,72844.3,-1.25,-39.79,-40.41,0,*54
1494479220.19,228,13.69,72844.3,-1.23,-39.53,-40.21,0,*53
1494479221.44,229,13.69,72842.5,-1.23,-38.97,-39.59,0,*5A
1494479222.68,230,13.69,72840.3,-1.23,-39.35,-40.21,0,*5A
1494479223.92,231,13.69,72832.3,-1.19,-39.91,-40.79,0,*51
1494479225.12,232,13.69,72830.8,-1.21,-40.35,-41.29,0,*5D
1494479226.37,233,13.69,72826.8,-1.19,-40.09,-41.03,0,*50
1494479227.59,234,13.69,72828.5,-1.21,-40.73,-41.67,0,*53
1494479228.78,235,13.69,72836.8,-1.21,-40.47,-41.29,0,*5F
1494479230.0,236,13.69,72828.5,-1.21,-40.47,-41.35,0,*51
1494479231.19,237,13.69,72838.0,-1.21,-40.73,-41.73,0,*55
1494479232.44,238,13.69,72842.0,-1.21,-40.09,-40.85,0,*5F
1494479233.65,239,13.69,72842.0,-1.21,-40.15,-40.91,0,*56
1494479234.85,240,13.69,72844.3,-1.21,-39.91,-40.65,0,*51
1494479236.07,241,13.69,72836.5,-1.21,-39.53,-40.35,0,*5B
1494479237.28,242,13.69,72828.8,-1.21,-39.97,-40.73,0,*52
1494479238.47,243,13.69,72836.8,-1.21,-40.53,-41.29,0,*5B
1494479239.66,244,13.69,72844.8,-1.21,-40.35,-41.17,0,*51
1494479240.87,245,13.69,72840.0,-1.21,-41.11,-41.93,0,*5B
1494479242.06,246,13.69,72830.3,-1.21,-40.35,-41.17,0,*53
1494479243.26,247,13.69,72832.5,-1.21,-40.91,-41.87,0,*55
1494479244.48,248,13.69,72840.3,-1.21,-40.73,-41.67,0,*58
1494479245.67,249,13.69,72836.0,-1.21,-40.53,-41.49,0,*57
1494479246.92,250,13.69,72834.3,-1.23,-39.85,-40.59,0,*58
1494479248.15,251,13.69,72832.5,-1.23,-39.65,-40.53,0,*5D
1494479249.37,252,13.69,72824.3,-1.21,-39.59,-40.35,0,*53
1494479250.59,253,13.69,72824.5,-1.21,-39.71,-40.65,0,*5D
1494479251.84,254,13.63,72826.0,-1.21,-39.97,-40.85,0,*5C
1494479253.04,255,13.63,72826.0,-1.21,-39.91,-40.73,0,*52
1494479254.27,256,13.63,72826.0,-1.21,-39.79,-40.53,0,*55
1494479255.54,257,13.69,72830.0,-1.19,-39.53,-40.41,0,*54
1494479256.76,258,13.69,72836.0,-1.19,-39.91,-40.65,0,*53
1494479258.04,259,13.69,72832.5,-1.19,-39.71,-40.59,0,*53
1494479259.3,260,13.63,72834.0,-1.19,-39.53,-40.29,0,*5E
1494479260.55,261,13.63,72834.5,-1.19,-39.65,-40.41,0,*54
1494479261.78,262,13.63,72838.3,-1.17,-40.09,-41.03,0,*5A
1494479262.97,263,13.69,72842.0,-1.17,-39.91,-40.65,0,*55
1494479264.19,264,13.69,72842.5,-1.17,-40.21,-41.03,0,*56
1494479265.41,265,13.69,72844.5,-1.15,-40.35,-41.35,0,*55
1494479266.63,266,13.63,72830.8,-1.17,-40.41,-41.29,0,*5A
1494479267.81,267,13.69,72828.8,-1.17,-40.65,-41.61,0,*51
1494479269.06,268,13.63,72824.5,-1.19,-40.47,-41.23,0,*56
1494479270.31,269,13.63,72820.3,-1.19,-39.91,-40.85,0,*5F
1494479271.55,270,13.63,72822.0,-1.19,-39.85,-40.79,0,*51
1494479272.77,271,13.63,72826.8,-1.19,-40.03,-40.65,0,*5D
1494479273.99,272,13.63,72832.3,-1.19,-39.91,-40.65,0,*5B
1494479275.23,273,13.69,72822.0,-1.19,-40.03,-40.79,0,*52
1494479276.47,274,13.69,72824.0,-1.19,-40.59,-41.61,0,*52
1494479277.7,275,13.63,72822.5,-1.19,-40.79,-41.61,0,*51
1494479278.94,276,13.69,72826.3,-1.19,-40.59,-41.41,0,*52
1494479280.16,277,13.63,72830.8,-1.21,-40.85,-41.73,0,*58
1494479281.36,278,13.63,72820.0,-1.21,-40.91,-41.87,0,*59
1494479282.57,279,13.63,72828.3,-1.21,-41.29,-42.19,0,*5E
1494479283.79,280,13.63,72826.5,-1.21,-41.29,-42.19,0,*58
1494479285.0,281,13.63,72826.0,-1.21,-41.11,-42.05,0,*5F
1494479286.22,282,13.63,72822.3,-1.23,-41.41,-42.37,0,*5A
1494479287.43,283,13.63,72818.3,-1.25,-40.79,-41.73,0,*54
1494479288.7,284,13.63,72814.8,-1.23,-40.41,-41.35,0,*5C
1494479289.92,285,13.63,72814.8,-1.23,-40.35,-41.17,0,*5E
1494479291.2,286,13.63,72820.3,-1.23,-40.41,-41.35,0,*5E
1494479292.38,287,13.63,72814.8,-1.25,-40.53,-41.41,0,*59
1494479293.6,288,13.63,72830.8,-1.25,-39.97,-40.73,0,*50
1494479294.79,289,13.63,72832.8,-1.25,-40.03,-40.91,0,*5E
1494479296.02,290,13.63,72830.0,-1.23,-39.85,-40.73,0,*5C
1494479297.24,291,13.63,72826.5,-1.23,-40.35,-41.17,0,*5B
1494479298.43,292,13.63,72832.3,-1.25,-40.35,-41.17,0,*5E
1494479299.69,293,13.63,72836.3,-1.23,-39.97,-40.79,0,*56
1494479300.91,294,13.63,72834.5,-1.25,-39.97,-40.73,0,*5D
1494479302.15,295,13.63,72824.0,-1.23,-39.23,-39.85,0,*52
1494479303.39,296,13.63,72834.0,-1.23,-39.41,-40.03,0,*55
1494479304.62,297,13.63,72838.5,-1.23,-39.85,-40.53,0,*59
1494479305.89,298,13.63,72828.3,-1.23,-40.59,-41.55,0,*5E
1494479307.16,299,13.63,72822.3,-1.23,-41.35,-42.19,0,*5F